Time,TemperatureF,DewpointF,PressureIn,WindDirection,WindDirectionDegrees,WindSpeedMPH,WindSpeedGustMPH,Humidity,HourlyPrecipIn,Conditions,Clouds,dailyrainin,SoftwareType,DateUTC
2013-10-22 00:01:00,57.2,42.1,29.77,North,-999,-999.0,-999.0,57,-99.99,,,-99.99,,2013-10-22 04:01:00,
2013-10-22 00:02:00,57.2,42.1,29.77,North,-999,-999.0,-999.0,57,-99.99,,,-99.99,,2013-10-22 04:02:00,
2013-10-22 00:03:00,57.2,42.1,29.77,North,-999,-999.0,-999.0,57,-99.99,,,-99.99,,2013-10-22 04:03:00,
2013-10-22 00:06:00,57.0,42.0,29.77,North,-999,-999.0,-999.0,57,-99.99,,,-99.99,,2013-10-22 04:06:00,
2013-10-22 00:11:00,56.8,41.8,29.77,North,-999,-999.0,-999.0,57,-99.99,,,-99.99,,2013-10-22 04:11:00,
2013-10-22 00:12:00,56.8,41.8,29.77,North,-999,-999.0,-999.0,57,-99.99,,,-99.99,,2013-10-22 04:12:00,
2013-10-22 00:17:00,56.8,41.8,29.77,North,-999,-999.0,-999.0,57,-99.99,,,-99.99,,2013-10-22 04:17:00,
2013-10-22 00:22:00,56.8,41.3,29.77,North,-999,-999.0,-999.0,56,-99.99,,,-99.99,,2013-10-22 04:22:00,
2013-10-22 00:28:00,56.7,41.2,29.77,North,-999,-999.0,-999.0,56,-99.99,,,-99.99,,2013-10-22 04:28:00,
2013-10-22 00:33:00,56.5,41.0,29.77,North,-999,-999.0,-999.0,56,-99.99,,,-99.99,,2013-10-22 04:33:00,
2013-10-22 00:38:00,56.3,40.8,29.77,North,-999,-999.0,-999.0,56,-99.99,,,-99.99,,2013-10-22 04:38:00,
2013-10-22 00:43:00,56.3,40.8,29.77,North,-999,-999.0,-999.0,56,-99.99,,,-99.99,,2013-10-22 04:43:00,
2013-10-22 00:48:00,56.3,40.8,29.77,North,-999,-999.0,-999.0,56,-99.99,,,-99.99,,2013-10-22 04:48:00,
2013-10-22 00:54:00,56.1,40.7,29.77,North,-999,-999.0,-999.0,56,-99.99,,,-99.99,,2013-10-22 04:54:00,
2013-10-22 01:00:00,56.1,40.7,29.77,North,-999,-999.0,-999.0,56,-99.99,,,-99.99,,2013-10-22 05:00:00,
2013-10-22 01:06:00,55.9,41.0,29.77,North,-999,-999.0,-999.0,57,-99.99,,,-99.99,,2013-10-22 05:06:00,
2013-10-22 01:12:00,55.8,40.8,29.77,North,-999,-999.0,-999.0,57,-99.99,,,-99.99,,2013-10-22 05:12:00,
2013-10-22 01:17:00,55.6,41.5,29.77,North,-999,-999.0,-999.0,59,-99.99,,,-99.99,,2013-10-22 05:17:00,
2013-10-22 01:22:00,55.4,41.3,29.77,North,-999,-999.0,-999.0,59,-99.99,,,-99.99,,2013-10-22 05:22:00,
2013-10-22 01:27:00,55.2,42.0,29.77,North,-999,-999.0,-999.0,61,-99.99,,,-99.99,,2013-10-22 05:27:00,
2013-10-22 01:33:00,55.2,42.4,29.77,North,-999,-999.0,-999.0,62,-99.99,,,-99.99,,2013-10-22 05:33:00,
2013-10-22 01:38:00,55.0,42.7,29.77,North,-999,-999.0,-999.0,63,-99.99,,,-99.99,,2013-10-22 05:38:00,
2013-10-22 01:44:00,54.9,42.9,29.77,North,-999,-999.0,-999.0,64,-99.99,,,-99.99,,2013-10-22 05:44:00,
2013-10-22 01:50:00,54.7,43.2,29.77,North,-999,-999.0,-999.0,65,-99.99,,,-99.99,,2013-10-22 05:50:00,
2013-10-22 01:55:00,54.5,43.0,29.77,North,-999,-999.0,-999.0,65,-99.99,,,-99.99,,2013-10-22 05:55:00,
2013-10-22 02:01:00,54.5,43.4,29.77,North,-999,-999.0,-999.0,66,-99.99,,,-99.99,,2013-10-22 06:01:00,
2013-10-22 02:06:00,54.3,43.6,29.77,North,-999,-999.0,-999.0,67,-99.99,,,-99.99,,2013-10-22 06:06:00,
2013-10-22 02:11:00,54.1,43.4,29.77,North,-999,-999.0,-999.0,67,-99.99,,,-99.99,,2013-10-22 06:11:00,
2013-10-22 02:18:00,54.1,43.8,29.77,North,-999,-999.0,-999.0,68,-99.99,,,-99.99,,2013-10-22 06:18:00,
2013-10-22 02:23:00,54.1,43.8,29.77,North,-999,-999.0,-999.0,68,-99.99,,,-99.99,,2013-10-22 06:23:00,
2013-10-22 02:29:00,54.1,44.2,29.77,North,-999,-999.0,-999.0,69,-99.99,,,-99.99,,2013-10-22 06:29:00,
2013-10-22 02:34:00,54.0,44.0,29.77,North,-999,-999.0,-999.0,69,-99.99,,,-99.99,,2013-10-22 06:34:00,
2013-10-22 02:39:00,54.0,44.0,29.74,North,-999,-999.0,-999.0,69,-99.99,,,-99.99,,2013-10-22 06:39:00,
2013-10-22 02:44:00,54.0,44.4,29.74,North,-999,-999.0,-999.0,70,-99.99,,,-99.99,,2013-10-22 06:44:00,
2013-10-22 02:49:00,53.8,44.2,29.74,North,-999,-999.0,-999.0,70,-99.99,,,-99.99,,2013-10-22 06:49:00,
2013-10-22 02:55:00,53.8,44.2,29.74,North,-999,-999.0,-999.0,70,-99.99,,,-99.99,,2013-10-22 06:55:00,
2013-10-22 03:02:00,53.8,44.6,29.74,North,-999,-999.0,-999.0,71,-99.99,,,-99.99,,2013-10-22 07:02:00,
2013-10-22 03:08:00,53.6,44.4,29.74,North,-999,-999.0,-999.0,71,-99.99,,,-99.99,,2013-10-22 07:08:00,
2013-10-22 03:14:00,53.6,44.4,29.74,North,-999,-999.0,-999.0,71,-99.99,,,-99.99,,2013-10-22 07:14:00,
2013-10-22 03:19:00,53.4,44.6,29.74,North,-999,-999.0,-999.0,72,-99.99,,,-99.99,,2013-10-22 07:19:00,
2013-10-22 03:25:00,53.4,44.6,29.71,North,-999,-999.0,-999.0,72,-99.99,,,-99.99,,2013-10-22 07:25:00,
2013-10-22 03:30:00,53.4,44.6,29.71,North,-999,-999.0,-999.0,72,-99.99,,,-99.99,,2013-10-22 07:30:00,
2013-10-22 03:36:00,53.4,44.6,29.71,North,-999,-999.0,-999.0,72,-99.99,,,-99.99,,2013-10-22 07:36:00,
2013-10-22 03:41:00,53.4,44.6,29.71,North,-999,-999.0,-999.0,72,-99.99,,,-99.99,,2013-10-22 07:41:00,
2013-10-22 03:47:00,53.4,45.0,29.71,North,-999,-999.0,-999.0,73,-99.99,,,-99.99,,2013-10-22 07:47:00,
2013-10-22 03:52:00,53.4,45.0,29.71,North,-999,-999.0,-999.0,73,-99.99,,,-99.99,,2013-10-22 07:52:00,
2013-10-22 03:58:00,53.2,44.8,29.71,North,-999,-999.0,-999.0,73,-99.99,,,-99.99,,2013-10-22 07:58:00,
2013-10-22 04:03:00,53.2,44.8,29.71,North,-999,-999.0,-999.0,73,-99.99,,,-99.99,,2013-10-22 08:03:00,
2013-10-22 04:08:00,53.2,44.8,29.71,North,-999,-999.0,-999.0,73,-99.99,,,-99.99,,2013-10-22 08:08:00,
2013-10-22 04:13:00,53.2,44.8,29.71,North,-999,-999.0,-999.0,73,-99.99,,,-99.99,,2013-10-22 08:13:00,
2013-10-22 04:19:00,53.2,44.8,29.71,North,-999,-999.0,-999.0,73,-99.99,,,-99.99,,2013-10-22 08:19:00,
2013-10-22 04:25:00,53.2,44.8,29.71,North,-999,-999.0,-999.0,73,-99.99,,,-99.99,,2013-10-22 08:25:00,
2013-10-22 04:31:00,53.2,45.2,29.71,North,-999,-999.0,-999.0,74,-99.99,,,-99.99,,2013-10-22 08:31:00,
2013-10-22 04:36:00,53.2,45.2,29.71,North,-999,-999.0,-999.0,74,-99.99,,,-99.99,,2013-10-22 08:36:00,
2013-10-22 04:42:00,53.2,45.2,29.71,North,-999,-999.0,-999.0,74,-99.99,,,-99.99,,2013-10-22 08:42:00,
2013-10-22 04:47:00,53.2,45.2,29.71,North,-999,-999.0,-999.0,74,-99.99,,,-99.99,,2013-10-22 08:47:00,
2013-10-22 04:52:00,53.1,45.0,29.71,North,-999,-999.0,-999.0,74,-99.99,,,-99.99,,2013-10-22 08:52:00,
2013-10-22 04:57:00,52.5,44.1,29.71,North,-999,-999.0,-999.0,73,-99.99,,,-99.99,,2013-10-22 08:57:00,
2013-10-22 05:03:00,52.3,43.6,29.71,North,-999,-999.0,-999.0,72,-99.99,,,-99.99,,2013-10-22 09:03:00,
2013-10-22 05:08:00,52.0,43.3,29.71,North,-999,-999.0,-999.0,72,-99.99,,,-99.99,,2013-10-22 09:08:00,
2013-10-22 05:13:00,51.8,43.1,29.74,North,-999,-999.0,-999.0,72,-99.99,,,-99.99,,2013-10-22 09:13:00,
2013-10-22 05:18:00,51.6,42.9,29.74,North,-999,-999.0,-999.0,72,-99.99,,,-99.99,,2013-10-22 09:18:00,
2013-10-22 05:24:00,51.4,42.4,29.74,North,-999,-999.0,-999.0,71,-99.99,,,-99.99,,2013-10-22 09:24:00,
2013-10-22 05:29:00,51.3,42.2,29.74,North,-999,-999.0,-999.0,71,-99.99,,,-99.99,,2013-10-22 09:29:00,
2013-10-22 05:34:00,51.3,42.2,29.74,North,-999,-999.0,-999.0,71,-99.99,,,-99.99,,2013-10-22 09:34:00,
2013-10-22 05:40:00,51.1,42.0,29.74,North,-999,-999.0,-999.0,71,-99.99,,,-99.99,,2013-10-22 09:40:00,
2013-10-22 05:45:00,50.9,41.5,29.74,North,-999,-999.0,-999.0,70,-99.99,,,-99.99,,2013-10-22 09:45:00,
2013-10-22 05:50:00,50.7,41.3,29.74,North,-999,-999.0,-999.0,70,-99.99,,,-99.99,,2013-10-22 09:50:00,
2013-10-22 05:57:00,50.5,40.8,29.74,North,-999,-999.0,-999.0,69,-99.99,,,-99.99,,2013-10-22 09:57:00,
2013-10-22 06:02:00,50.4,40.6,29.74,North,-999,-999.0,-999.0,69,-99.99,,,-99.99,,2013-10-22 10:02:00,
2013-10-22 06:08:00,50.2,40.0,29.74,North,-999,-999.0,-999.0,68,-99.99,,,-99.99,,2013-10-22 10:08:00,
2013-10-22 06:14:00,50.0,39.9,29.74,North,-999,-999.0,-999.0,68,-99.99,,,-99.99,,2013-10-22 10:14:00,
2013-10-22 06:19:00,50.0,39.9,29.74,North,-999,-999.0,-999.0,68,-99.99,,,-99.99,,2013-10-22 10:19:00,
2013-10-22 06:24:00,50.0,39.9,29.74,North,-999,-999.0,-999.0,68,-99.99,,,-99.99,,2013-10-22 10:24:00,
2013-10-22 06:29:00,49.8,39.7,29.74,North,-999,-999.0,-999.0,68,-99.99,,,-99.99,,2013-10-22 10:29:00,
2013-10-22 06:34:00,49.8,40.1,29.74,North,-999,-999.0,-999.0,69,-99.99,,,-99.99,,2013-10-22 10:34:00,
2013-10-22 06:40:00,49.6,39.9,29.74,North,-999,-999.0,-999.0,69,-99.99,,,-99.99,,2013-10-22 10:40:00,
2013-10-22 06:45:00,49.6,39.9,29.74,North,-999,-999.0,-999.0,69,-99.99,,,-99.99,,2013-10-22 10:45:00,
2013-10-22 06:50:00,49.6,39.9,29.74,North,-999,-999.0,-999.0,69,-99.99,,,-99.99,,2013-10-22 10:50:00,
2013-10-22 06:55:00,49.5,39.7,29.77,North,-999,-999.0,-999.0,69,-99.99,,,-99.99,,2013-10-22 10:55:00,
2013-10-22 07:00:00,49.5,39.7,29.77,North,-999,-999.0,-999.0,69,-99.99,,,-99.99,,2013-10-22 11:00:00,
2013-10-22 07:05:00,49.5,39.7,29.77,North,-999,-999.0,-999.0,69,-99.99,,,-99.99,,2013-10-22 11:05:00,
2013-10-22 07:11:00,49.3,39.2,29.74,North,-999,-999.0,-999.0,68,-99.99,,,-99.99,,2013-10-22 11:11:00,
2013-10-22 07:16:00,49.1,39.0,29.74,North,-999,-999.0,-999.0,68,-99.99,,,-99.99,,2013-10-22 11:16:00,
2013-10-22 07:21:00,49.1,39.0,29.74,North,-999,-999.0,-999.0,68,-99.99,,,-99.99,,2013-10-22 11:21:00,
2013-10-22 07:27:00,48.9,38.8,29.77,North,-999,-999.0,-999.0,68,-99.99,,,-99.99,,2013-10-22 11:27:00,
2013-10-22 07:32:00,48.9,38.5,29.77,North,-999,-999.0,-999.0,67,-99.99,,,-99.99,,2013-10-22 11:32:00,
2013-10-22 07:37:00,48.7,38.3,29.77,North,-999,-999.0,-999.0,67,-99.99,,,-99.99,,2013-10-22 11:37:00,
2013-10-22 07:43:00,48.7,37.9,29.77,North,-999,-999.0,-999.0,66,-99.99,,,-99.99,,2013-10-22 11:43:00,
2013-10-22 07:48:00,48.7,37.9,29.77,North,-999,-999.0,-999.0,66,-99.99,,,-99.99,,2013-10-22 11:48:00,
2013-10-22 07:53:00,48.4,37.2,29.77,North,-999,-999.0,-999.0,65,-99.99,,,-99.99,,2013-10-22 11:53:00,
2013-10-22 07:58:00,48.4,37.2,29.77,North,-999,-999.0,-999.0,65,-99.99,,,-99.99,,2013-10-22 11:58:00,
2013-10-22 08:03:00,48.2,37.0,29.77,North,-999,-999.0,-999.0,65,-99.99,,,-99.99,,2013-10-22 12:03:00,
2013-10-22 08:09:00,48.0,36.8,29.77,North,-999,-999.0,-999.0,65,-99.99,,,-99.99,,2013-10-22 12:09:00,
2013-10-22 08:14:00,47.8,36.7,29.77,North,-999,-999.0,-999.0,65,-99.99,,,-99.99,,2013-10-22 12:14:00,
2013-10-22 08:19:00,47.7,36.5,29.77,North,-999,-999.0,-999.0,65,-99.99,,,-99.99,,2013-10-22 12:19:00,
2013-10-22 08:24:00,47.3,36.2,29.77,North,-999,-999.0,-999.0,65,-99.99,,,-99.99,,2013-10-22 12:24:00,
2013-10-22 08:29:00,47.3,36.2,29.77,North,-999,-999.0,-999.0,65,-99.99,,,-99.99,,2013-10-22 12:29:00,
2013-10-22 08:35:00,47.3,36.2,29.77,North,-999,-999.0,-999.0,65,-99.99,,,-99.99,,2013-10-22 12:35:00,
2013-10-22 08:40:00,47.3,36.2,29.77,North,-999,-999.0,-999.0,65,-99.99,,,-99.99,,2013-10-22 12:40:00,
2013-10-22 08:45:00,47.5,36.3,29.77,North,-999,-999.0,-999.0,65,-99.99,,,-99.99,,2013-10-22 12:45:00,
2013-10-22 08:50:00,47.3,35.8,29.77,North,-999,-999.0,-999.0,64,-99.99,,,-99.99,,2013-10-22 12:50:00,
2013-10-22 08:55:00,47.3,35.0,29.77,North,-999,-999.0,-999.0,62,-99.99,,,-99.99,,2013-10-22 12:55:00,
2013-10-22 09:01:00,47.3,35.0,29.77,North,-999,-999.0,-999.0,62,-99.99,,,-99.99,,2013-10-22 13:01:00,
2013-10-22 09:06:00,47.5,34.7,29.77,North,-999,-999.0,-999.0,61,-99.99,,,-99.99,,2013-10-22 13:06:00,
2013-10-22 09:11:00,47.5,34.7,29.80,North,-999,-999.0,-999.0,61,-99.99,,,-99.99,,2013-10-22 13:11:00,
2013-10-22 09:16:00,47.5,34.7,29.80,North,-999,-999.0,-999.0,61,-99.99,,,-99.99,,2013-10-22 13:16:00,
2013-10-22 09:21:00,47.5,34.3,29.80,North,-999,-999.0,-999.0,60,-99.99,,,-99.99,,2013-10-22 13:21:00,
2013-10-22 09:27:00,47.5,34.3,29.80,North,-999,-999.0,-999.0,60,-99.99,,,-99.99,,2013-10-22 13:27:00,
2013-10-22 09:32:00,47.7,34.5,29.80,North,-999,-999.0,-999.0,60,-99.99,,,-99.99,,2013-10-22 13:32:00,
2013-10-22 09:37:00,47.7,34.5,29.80,North,-999,-999.0,-999.0,60,-99.99,,,-99.99,,2013-10-22 13:37:00,
2013-10-22 09:42:00,47.8,34.2,29.80,North,-999,-999.0,-999.0,59,-99.99,,,-99.99,,2013-10-22 13:42:00,
2013-10-22 09:47:00,47.7,33.6,29.80,North,-999,-999.0,-999.0,58,-99.99,,,-99.99,,2013-10-22 13:47:00,
2013-10-22 09:53:00,47.5,33.0,29.80,North,-999,-999.0,-999.0,57,-99.99,,,-99.99,,2013-10-22 13:53:00,
2013-10-22 09:58:00,47.5,32.6,29.80,North,-999,-999.0,-999.0,56,-99.99,,,-99.99,,2013-10-22 13:58:00,
2013-10-22 10:03:00,47.7,32.3,29.80,North,-999,-999.0,-999.0,55,-99.99,,,-99.99,,2013-10-22 14:03:00,
2013-10-22 10:08:00,47.7,31.4,29.80,North,-999,-999.0,-999.0,53,-99.99,,,-99.99,,2013-10-22 14:08:00,
2013-10-22 10:13:00,47.7,30.9,29.80,North,-999,-999.0,-999.0,52,-99.99,,,-99.99,,2013-10-22 14:13:00,
2013-10-22 10:19:00,47.5,30.3,29.80,North,-999,-999.0,-999.0,51,-99.99,,,-99.99,,2013-10-22 14:19:00,
2013-10-22 10:24:00,47.7,30.5,29.80,North,-999,-999.0,-999.0,51,-99.99,,,-99.99,,2013-10-22 14:24:00,
2013-10-22 10:29:00,48.0,30.3,29.80,North,-999,-999.0,-999.0,50,-99.99,,,-99.99,,2013-10-22 14:29:00,
2013-10-22 10:34:00,48.4,30.1,29.80,North,-999,-999.0,-999.0,49,-99.99,,,-99.99,,2013-10-22 14:34:00,
2013-10-22 10:39:00,48.9,30.1,29.80,North,-999,-999.0,-999.0,48,-99.99,,,-99.99,,2013-10-22 14:39:00,
2013-10-22 10:45:00,49.3,30.5,29.80,North,-999,-999.0,-999.0,48,-99.99,,,-99.99,,2013-10-22 14:45:00,
2013-10-22 10:50:00,50.0,30.6,29.80,North,-999,-999.0,-999.0,47,-99.99,,,-99.99,,2013-10-22 14:50:00,
2013-10-22 10:56:00,50.7,31.3,29.80,North,-999,-999.0,-999.0,47,-99.99,,,-99.99,,2013-10-22 14:56:00,
2013-10-22 11:01:00,51.4,31.4,29.80,North,-999,-999.0,-999.0,46,-99.99,,,-99.99,,2013-10-22 15:01:00,
2013-10-22 11:06:00,51.8,30.6,29.80,North,-999,-999.0,-999.0,44,-99.99,,,-99.99,,2013-10-22 15:06:00,
2013-10-22 11:12:00,52.5,30.7,29.77,North,-999,-999.0,-999.0,43,-99.99,,,-99.99,,2013-10-22 15:12:00,
2013-10-22 11:17:00,52.5,30.1,29.77,North,-999,-999.0,-999.0,42,-99.99,,,-99.99,,2013-10-22 15:17:00,
2013-10-22 11:23:00,52.7,29.7,29.77,North,-999,-999.0,-999.0,41,-99.99,,,-99.99,,2013-10-22 15:23:00,
2013-10-22 11:28:00,52.9,29.3,29.80,North,-999,-999.0,-999.0,40,-99.99,,,-99.99,,2013-10-22 15:28:00,
2013-10-22 11:33:00,52.9,28.6,29.80,North,-999,-999.0,-999.0,39,-99.99,,,-99.99,,2013-10-22 15:33:00,
2013-10-22 11:39:00,52.5,28.3,29.80,North,-999,-999.0,-999.0,39,-99.99,,,-99.99,,2013-10-22 15:39:00,
2013-10-22 11:44:00,52.5,28.3,29.80,North,-999,-999.0,-999.0,39,-99.99,,,-99.99,,2013-10-22 15:44:00,
2013-10-22 11:50:00,52.3,27.5,29.80,North,-999,-999.0,-999.0,38,-99.99,,,-99.99,,2013-10-22 15:50:00,
2013-10-22 11:55:00,52.3,27.5,29.80,North,-999,-999.0,-999.0,38,-99.99,,,-99.99,,2013-10-22 15:55:00,
2013-10-22 12:00:00,52.2,27.4,29.80,North,-999,-999.0,-999.0,38,-99.99,,,-99.99,,2013-10-22 16:00:00,
2013-10-22 12:05:00,52.0,27.2,29.80,North,-999,-999.0,-999.0,38,-99.99,,,-99.99,,2013-10-22 16:05:00,
2013-10-22 12:10:00,51.8,27.0,29.80,North,-999,-999.0,-999.0,38,-99.99,,,-99.99,,2013-10-22 16:10:00,
2013-10-22 12:16:00,51.8,27.0,29.80,North,-999,-999.0,-999.0,38,-99.99,,,-99.99,,2013-10-22 16:16:00,
2013-10-22 12:21:00,51.6,26.9,29.80,North,-999,-999.0,-999.0,38,-99.99,,,-99.99,,2013-10-22 16:21:00,
2013-10-22 12:26:00,51.4,26.7,29.80,North,-999,-999.0,-999.0,38,-99.99,,,-99.99,,2013-10-22 16:26:00,
2013-10-22 12:31:00,51.4,26.7,29.80,North,-999,-999.0,-999.0,38,-99.99,,,-99.99,,2013-10-22 16:31:00,
2013-10-22 12:36:00,51.6,26.9,29.80,North,-999,-999.0,-999.0,38,-99.99,,,-99.99,,2013-10-22 16:36:00,
2013-10-22 12:42:00,51.6,26.9,29.80,North,-999,-999.0,-999.0,38,-99.99,,,-99.99,,2013-10-22 16:42:00,
2013-10-22 12:47:00,51.6,26.9,29.80,North,-999,-999.0,-999.0,38,-99.99,,,-99.99,,2013-10-22 16:47:00,
2013-10-22 12:53:00,51.4,26.1,29.80,North,-999,-999.0,-999.0,37,-99.99,,,-99.99,,2013-10-22 16:53:00,
2013-10-22 12:58:00,51.4,26.1,29.77,North,-999,-999.0,-999.0,37,-99.99,,,-99.99,,2013-10-22 16:58:00,
2013-10-22 13:04:00,51.4,26.1,29.77,North,-999,-999.0,-999.0,37,-99.99,,,-99.99,,2013-10-22 17:04:00,
2013-10-22 13:10:00,51.4,26.1,29.77,North,-999,-999.0,-999.0,37,-99.99,,,-99.99,,2013-10-22 17:10:00,
2013-10-22 13:15:00,51.6,26.2,29.80,North,-999,-999.0,-999.0,37,-99.99,,,-99.99,,2013-10-22 17:15:00,
2013-10-22 13:20:00,51.4,26.1,29.80,North,-999,-999.0,-999.0,37,-99.99,,,-99.99,,2013-10-22 17:20:00,
2013-10-22 13:25:00,51.4,26.1,29.80,North,-999,-999.0,-999.0,37,-99.99,,,-99.99,,2013-10-22 17:25:00,
2013-10-22 13:30:00,51.4,26.1,29.80,North,-999,-999.0,-999.0,37,-99.99,,,-99.99,,2013-10-22 17:30:00,
2013-10-22 13:36:00,51.4,26.1,29.80,North,-999,-999.0,-999.0,37,-99.99,,,-99.99,,2013-10-22 17:36:00,
2013-10-22 13:41:00,51.4,26.1,29.80,North,-999,-999.0,-999.0,37,-99.99,,,-99.99,,2013-10-22 17:41:00,
2013-10-22 13:46:00,51.4,26.1,29.80,North,-999,-999.0,-999.0,37,-99.99,,,-99.99,,2013-10-22 17:46:00,
2013-10-22 13:51:00,51.6,26.2,29.80,North,-999,-999.0,-999.0,37,-99.99,,,-99.99,,2013-10-22 17:51:00,
2013-10-22 13:56:00,51.6,26.2,29.77,North,-999,-999.0,-999.0,37,-99.99,,,-99.99,,2013-10-22 17:56:00,
2013-10-22 14:02:00,51.8,26.4,29.77,North,-999,-999.0,-999.0,37,-99.99,,,-99.99,,2013-10-22 18:02:00,
2013-10-22 14:07:00,52.0,26.6,29.77,North,-999,-999.0,-999.0,37,-99.99,,,-99.99,,2013-10-22 18:07:00,
2013-10-22 14:12:00,52.2,26.7,29.77,North,-999,-999.0,-999.0,37,-99.99,,,-99.99,,2013-10-22 18:12:00,
2013-10-22 14:17:00,52.3,26.9,29.77,North,-999,-999.0,-999.0,37,-99.99,,,-99.99,,2013-10-22 18:17:00,
2013-10-22 14:22:00,52.3,26.9,29.77,North,-999,-999.0,-999.0,37,-99.99,,,-99.99,,2013-10-22 18:22:00,
2013-10-22 14:28:00,52.5,27.0,29.77,North,-999,-999.0,-999.0,37,-99.99,,,-99.99,,2013-10-22 18:28:00,
2013-10-22 14:33:00,52.7,27.2,29.77,North,-999,-999.0,-999.0,37,-99.99,,,-99.99,,2013-10-22 18:33:00,
2013-10-22 14:39:00,53.1,27.5,29.77,North,-999,-999.0,-999.0,37,-99.99,,,-99.99,,2013-10-22 18:39:00,
2013-10-22 14:44:00,53.2,27.7,29.77,North,-999,-999.0,-999.0,37,-99.99,,,-99.99,,2013-10-22 18:44:00,
2013-10-22 14:49:00,53.1,27.5,29.77,North,-999,-999.0,-999.0,37,-99.99,,,-99.99,,2013-10-22 18:49:00,
2013-10-22 14:54:00,53.2,27.7,29.77,North,-999,-999.0,-999.0,37,-99.99,,,-99.99,,2013-10-22 18:54:00,
2013-10-22 14:59:00,53.2,27.7,29.77,North,-999,-999.0,-999.0,37,-99.99,,,-99.99,,2013-10-22 18:59:00,
2013-10-22 15:05:00,53.2,28.3,29.77,North,-999,-999.0,-999.0,38,-99.99,,,-99.99,,2013-10-22 19:05:00,
2013-10-22 15:10:00,53.1,28.2,29.77,North,-999,-999.0,-999.0,38,-99.99,,,-99.99,,2013-10-22 19:10:00,
2013-10-22 15:15:00,53.4,28.5,29.77,North,-999,-999.0,-999.0,38,-99.99,,,-99.99,,2013-10-22 19:15:00,
2013-10-22 15:20:00,53.2,28.3,29.77,North,-999,-999.0,-999.0,38,-99.99,,,-99.99,,2013-10-22 19:20:00,
2013-10-22 15:25:00,53.1,28.2,29.77,North,-999,-999.0,-999.0,38,-99.99,,,-99.99,,2013-10-22 19:25:00,
2013-10-22 15:31:00,53.2,29.0,29.77,North,-999,-999.0,-999.0,39,-99.99,,,-99.99,,2013-10-22 19:31:00,
2013-10-22 15:37:00,53.2,29.0,29.77,North,-999,-999.0,-999.0,39,-99.99,,,-99.99,,2013-10-22 19:37:00,
2013-10-22 15:42:00,53.1,28.8,29.77,North,-999,-999.0,-999.0,39,-99.99,,,-99.99,,2013-10-22 19:42:00,
2013-10-22 15:47:00,52.9,28.6,29.77,North,-999,-999.0,-999.0,39,-99.99,,,-99.99,,2013-10-22 19:47:00,
2013-10-22 15:53:00,52.9,28.6,29.77,North,-999,-999.0,-999.0,39,-99.99,,,-99.99,,2013-10-22 19:53:00,
2013-10-22 15:59:00,52.7,28.5,29.77,North,-999,-999.0,-999.0,39,-99.99,,,-99.99,,2013-10-22 19:59:00,
2013-10-22 16:04:00,52.7,28.5,29.77,North,-999,-999.0,-999.0,39,-99.99,,,-99.99,,2013-10-22 20:04:00,
2013-10-22 16:09:00,52.7,28.5,29.77,North,-999,-999.0,-999.0,39,-99.99,,,-99.99,,2013-10-22 20:09:00,
2013-10-22 16:14:00,52.7,28.5,29.77,North,-999,-999.0,-999.0,39,-99.99,,,-99.99,,2013-10-22 20:14:00,
2013-10-22 16:19:00,52.7,28.5,29.77,North,-999,-999.0,-999.0,39,-99.99,,,-99.99,,2013-10-22 20:19:00,
2013-10-22 16:25:00,52.5,28.3,29.77,North,-999,-999.0,-999.0,39,-99.99,,,-99.99,,2013-10-22 20:25:00,
2013-10-22 16:30:00,52.2,28.0,29.77,North,-999,-999.0,-999.0,39,-99.99,,,-99.99,,2013-10-22 20:30:00,
2013-10-22 16:35:00,52.2,28.0,29.77,North,-999,-999.0,-999.0,39,-99.99,,,-99.99,,2013-10-22 20:35:00,
2013-10-22 16:41:00,52.0,27.8,29.77,North,-999,-999.0,-999.0,39,-99.99,,,-99.99,,2013-10-22 20:41:00,
2013-10-22 16:46:00,52.0,27.8,29.77,North,-999,-999.0,-999.0,39,-99.99,,,-99.99,,2013-10-22 20:46:00,
2013-10-22 16:51:00,51.8,27.7,29.77,North,-999,-999.0,-999.0,39,-99.99,,,-99.99,,2013-10-22 20:51:00,
2013-10-22 16:56:00,51.8,27.7,29.77,North,-999,-999.0,-999.0,39,-99.99,,,-99.99,,2013-10-22 20:56:00,
2013-10-22 17:02:00,51.6,27.5,29.77,North,-999,-999.0,-999.0,39,-99.99,,,-99.99,,2013-10-22 21:02:00,
2013-10-22 17:07:00,51.4,27.4,29.77,North,-999,-999.0,-999.0,39,-99.99,,,-99.99,,2013-10-22 21:07:00,
2013-10-22 17:13:00,51.4,27.4,29.77,North,-999,-999.0,-999.0,39,-99.99,,,-99.99,,2013-10-22 21:13:00,
2013-10-22 17:18:00,51.3,27.2,29.77,North,-999,-999.0,-999.0,39,-99.99,,,-99.99,,2013-10-22 21:18:00,
2013-10-22 17:23:00,51.1,27.0,29.77,North,-999,-999.0,-999.0,39,-99.99,,,-99.99,,2013-10-22 21:23:00,
2013-10-22 17:29:00,51.1,27.0,29.80,North,-999,-999.0,-999.0,39,-99.99,,,-99.99,,2013-10-22 21:29:00,
2013-10-22 17:34:00,50.9,26.9,29.80,North,-999,-999.0,-999.0,39,-99.99,,,-99.99,,2013-10-22 21:34:00,
2013-10-22 17:39:00,50.7,26.7,29.80,North,-999,-999.0,-999.0,39,-99.99,,,-99.99,,2013-10-22 21:39:00,
2013-10-22 17:44:00,50.7,26.7,29.80,North,-999,-999.0,-999.0,39,-99.99,,,-99.99,,2013-10-22 21:44:00,
2013-10-22 17:50:00,50.5,26.6,29.80,North,-999,-999.0,-999.0,39,-99.99,,,-99.99,,2013-10-22 21:50:00,
2013-10-22 17:55:00,50.4,26.4,29.80,North,-999,-999.0,-999.0,39,-99.99,,,-99.99,,2013-10-22 21:55:00,
2013-10-22 18:01:00,50.4,26.4,29.80,North,-999,-999.0,-999.0,39,-99.99,,,-99.99,,2013-10-22 22:01:00,
2013-10-22 18:06:00,50.4,27.0,29.80,North,-999,-999.0,-999.0,40,-99.99,,,-99.99,,2013-10-22 22:06:00,
2013-10-22 18:11:00,50.2,26.8,29.80,North,-999,-999.0,-999.0,40,-99.99,,,-99.99,,2013-10-22 22:11:00,
2013-10-22 18:16:00,50.2,26.8,29.80,North,-999,-999.0,-999.0,40,-99.99,,,-99.99,,2013-10-22 22:16:00,
2013-10-22 18:22:00,50.2,26.8,29.80,North,-999,-999.0,-999.0,40,-99.99,,,-99.99,,2013-10-22 22:22:00,
2013-10-22 18:27:00,50.0,26.7,29.80,North,-999,-999.0,-999.0,40,-99.99,,,-99.99,,2013-10-22 22:27:00,
2013-10-22 18:33:00,50.0,26.1,29.80,North,-999,-999.0,-999.0,39,-99.99,,,-99.99,,2013-10-22 22:33:00,
2013-10-22 18:40:00,49.8,25.9,29.80,North,-999,-999.0,-999.0,39,-99.99,,,-99.99,,2013-10-22 22:40:00,
2013-10-22 18:45:00,49.6,25.7,29.80,North,-999,-999.0,-999.0,39,-99.99,,,-99.99,,2013-10-22 22:45:00,
2013-10-22 18:50:00,49.5,25.6,29.80,North,-999,-999.0,-999.0,39,-99.99,,,-99.99,,2013-10-22 22:50:00,
2013-10-22 18:55:00,49.3,25.4,29.80,North,-999,-999.0,-999.0,39,-99.99,,,-99.99,,2013-10-22 22:55:00,
2013-10-22 19:01:00,49.3,25.4,29.80,North,-999,-999.0,-999.0,39,-99.99,,,-99.99,,2013-10-22 23:01:00,
2013-10-22 19:06:00,49.1,25.9,29.80,North,-999,-999.0,-999.0,40,-99.99,,,-99.99,,2013-10-22 23:06:00,
2013-10-22 19:11:00,48.7,25.5,29.80,North,-999,-999.0,-999.0,40,-99.99,,,-99.99,,2013-10-22 23:11:00,
2013-10-22 19:16:00,48.7,25.5,29.80,North,-999,-999.0,-999.0,40,-99.99,,,-99.99,,2013-10-22 23:16:00,
2013-10-22 19:21:00,48.6,25.4,29.80,North,-999,-999.0,-999.0,40,-99.99,,,-99.99,,2013-10-22 23:21:00,
2013-10-22 19:27:00,48.4,25.8,29.80,North,-999,-999.0,-999.0,41,-99.99,,,-99.99,,2013-10-22 23:27:00,
2013-10-22 19:32:00,48.2,25.7,29.80,North,-999,-999.0,-999.0,41,-99.99,,,-99.99,,2013-10-22 23:32:00,
2013-10-22 19:37:00,48.0,25.5,29.80,North,-999,-999.0,-999.0,41,-99.99,,,-99.99,,2013-10-22 23:37:00,
2013-10-22 19:42:00,47.8,25.3,29.80,North,-999,-999.0,-999.0,41,-99.99,,,-99.99,,2013-10-22 23:42:00,
2013-10-22 19:47:00,47.8,25.3,29.80,North,-999,-999.0,-999.0,41,-99.99,,,-99.99,,2013-10-22 23:47:00,
2013-10-22 19:53:00,47.7,25.2,29.80,North,-999,-999.0,-999.0,41,-99.99,,,-99.99,,2013-10-22 23:53:00,
2013-10-22 19:58:00,47.5,25.0,29.80,North,-999,-999.0,-999.0,41,-99.99,,,-99.99,,2013-10-22 23:58:00,
2013-10-22 20:03:00,47.5,25.0,29.80,North,-999,-999.0,-999.0,41,-99.99,,,-99.99,,2013-10-23 00:03:00,
2013-10-22 20:08:00,47.3,24.8,29.80,North,-999,-999.0,-999.0,41,-99.99,,,-99.99,,2013-10-23 00:08:00,
2013-10-22 20:13:00,47.3,24.8,29.80,North,-999,-999.0,-999.0,41,-99.99,,,-99.99,,2013-10-23 00:13:00,
2013-10-22 20:19:00,47.1,25.3,29.80,North,-999,-999.0,-999.0,42,-99.99,,,-99.99,,2013-10-23 00:19:00,
2013-10-22 20:24:00,47.1,25.3,29.80,North,-999,-999.0,-999.0,42,-99.99,,,-99.99,,2013-10-23 00:24:00,
2013-10-22 20:29:00,46.9,25.1,29.80,North,-999,-999.0,-999.0,42,-99.99,,,-99.99,,2013-10-23 00:29:00,
2013-10-22 20:35:00,46.9,25.1,29.80,North,-999,-999.0,-999.0,42,-99.99,,,-99.99,,2013-10-23 00:35:00,
2013-10-22 20:40:00,46.8,24.9,29.80,North,-999,-999.0,-999.0,42,-99.99,,,-99.99,,2013-10-23 00:40:00,
2013-10-22 20:45:00,46.6,25.3,29.80,North,-999,-999.0,-999.0,43,-99.99,,,-99.99,,2013-10-23 00:45:00,
2013-10-22 20:50:00,46.6,25.3,29.80,North,-999,-999.0,-999.0,43,-99.99,,,-99.99,,2013-10-23 00:50:00,
2013-10-22 20:56:00,46.4,25.2,29.80,North,-999,-999.0,-999.0,43,-99.99,,,-99.99,,2013-10-23 00:56:00,
2013-10-22 21:01:00,46.4,25.2,29.80,North,-999,-999.0,-999.0,43,-99.99,,,-99.99,,2013-10-23 01:01:00,
2013-10-22 21:06:00,46.2,25.0,29.80,North,-999,-999.0,-999.0,43,-99.99,,,-99.99,,2013-10-23 01:06:00,
2013-10-22 21:12:00,45.9,25.2,29.80,North,-999,-999.0,-999.0,44,-99.99,,,-99.99,,2013-10-23 01:12:00,
2013-10-22 21:18:00,45.7,25.1,29.80,North,-999,-999.0,-999.0,44,-99.99,,,-99.99,,2013-10-23 01:18:00,
2013-10-22 21:23:00,45.7,25.6,29.80,North,-999,-999.0,-999.0,45,-99.99,,,-99.99,,2013-10-23 01:23:00,
2013-10-22 21:28:00,45.5,25.4,29.80,North,-999,-999.0,-999.0,45,-99.99,,,-99.99,,2013-10-23 01:28:00,
2013-10-22 21:35:00,45.3,25.8,29.80,North,-999,-999.0,-999.0,46,-99.99,,,-99.99,,2013-10-23 01:35:00,
2013-10-22 21:40:00,45.1,25.6,29.80,North,-999,-999.0,-999.0,46,-99.99,,,-99.99,,2013-10-23 01:40:00,
2013-10-22 21:46:00,45.0,26.0,29.80,North,-999,-999.0,-999.0,47,-99.99,,,-99.99,,2013-10-23 01:46:00,
2013-10-22 21:51:00,44.8,25.8,29.80,North,-999,-999.0,-999.0,47,-99.99,,,-99.99,,2013-10-23 01:51:00,
2013-10-22 21:57:00,44.8,25.8,29.80,North,-999,-999.0,-999.0,47,-99.99,,,-99.99,,2013-10-23 01:57:00,
2013-10-22 22:02:00,44.6,26.2,29.80,North,-999,-999.0,-999.0,48,-99.99,,,-99.99,,2013-10-23 02:02:00,
2013-10-22 22:07:00,44.4,26.0,29.80,North,-999,-999.0,-999.0,48,-99.99,,,-99.99,,2013-10-23 02:07:00,
2013-10-22 22:12:00,44.2,25.8,29.80,North,-999,-999.0,-999.0,48,-99.99,,,-99.99,,2013-10-23 02:12:00,
2013-10-22 22:17:00,44.2,25.8,29.80,North,-999,-999.0,-999.0,48,-99.99,,,-99.99,,2013-10-23 02:17:00,
2013-10-22 22:24:00,44.1,26.2,29.80,North,-999,-999.0,-999.0,49,-99.99,,,-99.99,,2013-10-23 02:24:00,
2013-10-22 22:29:00,43.7,25.8,29.80,North,-999,-999.0,-999.0,49,-99.99,,,-99.99,,2013-10-23 02:29:00,
2013-10-22 22:34:00,43.5,25.7,29.80,North,-999,-999.0,-999.0,49,-99.99,,,-99.99,,2013-10-23 02:34:00,
2013-10-22 22:40:00,43.5,25.7,29.80,North,-999,-999.0,-999.0,49,-99.99,,,-99.99,,2013-10-23 02:40:00,
2013-10-22 22:45:00,43.5,26.2,29.80,North,-999,-999.0,-999.0,50,-99.99,,,-99.99,,2013-10-23 02:45:00,
2013-10-22 22:50:00,43.3,26.0,29.80,North,-999,-999.0,-999.0,50,-99.99,,,-99.99,,2013-10-23 02:50:00,
2013-10-22 22:55:00,43.5,26.2,29.80,North,-999,-999.0,-999.0,50,-99.99,,,-99.99,,2013-10-23 02:55:00,
2013-10-22 23:02:00,43.7,26.3,29.80,North,-999,-999.0,-999.0,50,-99.99,,,-99.99,,2013-10-23 03:02:00,
2013-10-22 23:07:00,43.7,26.3,29.80,North,-999,-999.0,-999.0,50,-99.99,,,-99.99,,2013-10-23 03:07:00,
2013-10-22 23:13:00,43.9,26.5,29.80,North,-999,-999.0,-999.0,50,-99.99,,,-99.99,,2013-10-23 03:13:00,
2013-10-22 23:19:00,43.9,26.5,29.80,North,-999,-999.0,-999.0,50,-99.99,,,-99.99,,2013-10-23 03:19:00,
2013-10-22 23:24:00,44.1,26.7,29.80,North,-999,-999.0,-999.0,50,-99.99,,,-99.99,,2013-10-23 03:24:00,
2013-10-22 23:29:00,43.9,26.5,29.80,North,-999,-999.0,-999.0,50,-99.99,,,-99.99,,2013-10-23 03:29:00,
2013-10-22 23:34:00,43.9,26.0,29.80,North,-999,-999.0,-999.0,49,-99.99,,,-99.99,,2013-10-23 03:34:00,
2013-10-22 23:39:00,43.9,26.5,29.80,North,-999,-999.0,-999.0,50,-99.99,,,-99.99,,2013-10-23 03:39:00,
2013-10-22 23:45:00,43.7,26.3,29.80,North,-999,-999.0,-999.0,50,-99.99,,,-99.99,,2013-10-23 03:45:00,
2013-10-22 23:50:00,43.5,26.2,29.80,North,-999,-999.0,-999.0,50,-99.99,,,-99.99,,2013-10-23 03:50:00,
2013-10-22 23:56:00,43.5,26.2,29.80,North,-999,-999.0,-999.0,50,-99.99,,,-99.99,,2013-10-23 03:56:00,